sat.trackr.live / text

‹ back to catalog

STARLINK-36612

NORAD 67580 · 2026-016V

PAYLOAD ACTIVE UNKNOWN

§ Identity

Operator
Country
US
Launch date
2026-01-25
Launch site
AFWTR
Launch vehicle
Mass (kg)
RCS (m²)

Purposes: comms

External: N2YO · Heavens-Above · Gunter

§ Orbital elements

Epoch: 2026-09-19T09:15:25.819200Z

Period
93.90 min
Inclination
97.2853°
Eccentricity
0.0000792
Mean motion
15.33467837 rev/d
Perigee alt
464.9 km
Apogee alt
466.0 km
Semi-major
6,843.6 km
B*
6.2936e-4
RAAN
321.1262°
Arg perigee
115.5935°
Mean anomaly
244.5390°
Rev number
3,655

§ Raw data

STARLINK-366121 67580U 26016V   26262.38571550  .00020312  00000+0  62936-3 0  99992 67580  97.2853 321.1262 0000792 115.5935 244.5390 15.33467837 36559

JSON: /api/v1/satellites/67580 · /tle

For live sub-satellite position, see the globe view (requires WebGL).

§ Visibility from observer

Set your observer location to see the next 7 days of passes ≥ 10°. The values pass through the URL so the page stays shareable.

No JS? Fill the form by hand. The geolocation button needs JavaScript.